www.pogodaiklimat.ru

Погода и климат >> Архив погоды >> Австрия >> Санкт Радегунд бай Грац


ПОГОДА в Санкт Радегунд бай Грац

  • Прогноз погоды в Санкт Радегунд бай Грац
  • Монитор погоды в Санкт Радегунд бай Грац

АРХИВ ПОГОДЫ в Санкт Радегунд бай Грац

Время (UTC), дата Ветер
(напр.,м/с)
 
Видим.   Явления Облачность Т
(С)
Тd
(С)
f
(%)
Тe
(С)
Тes
(С)
Комфортность P
(гПа)
Po
(гПа)
Тmin
(С)
Tmax
(С)
R
(мм)
R24
(мм)
S
(см)
01 15.08 СЗ 2 н/о н/о +11.1 +6.7 74 +10 +10 1020.1 935.5
02 15.08 З 2 н/о н/о +11.1 +6.9 75 +10 +10 1019.7 935.1
03 15.08 СЗ 2 н/о н/о +10.7 +6.5 75 +9 +9 1019.6 934.9
04 15.08 СЗ 3 н/о н/о +10.2 +6.2 76 +8 +8 1019.6 934.8
05 15.08 СЗ 3 н/о н/о +11.4 +7.3 76 +10 +10 1019.1 934.7
06 15.08 штиль 0 н/о н/о +13.7 +8.8 72 +13 +13 1018.4 934.7 +10.1 +15.0
07 15.08 ЮВ 1 н/о н/о +16.9 +8.1 56 +18 +18 1017.3 934.6
08 15.08 Ю 1 н/о н/о +17.6 +8.2 54 +19 +19 1016.9 934.4
09 15.08 Ю 2 н/о н/о +19.1 +8.7 51 +20 +20 1016.2 934.2
10 15.08 Ю 1 н/о н/о +19.8 +8.2 47 +22 +22 комфорт 1015.5 933.7
11 15.08 ЮВ 2 н/о н/о +19.8 +9.1 50 +21 +21 комфорт 1015.0 933.3
12 15.08 ЮВ 2 н/о н/о +19.1 +9.3 53 +20 +20 1015.1 933.2
13 15.08 Ю 1 н/о н/о +20.3 +11.0 55 +23 +23 комфорт 1014.1 932.6
14 15.08 ЮЗ 2 н/о н/о +20.1 +11.0 56 +22 +22 комфорт 1013.9 932.4
15 15.08 Ю 1 н/о н/о +20.2 +11.1 56 +23 +23 комфорт 1013.8 932.3
16 15.08 ЮВ 2 н/о н/о +20.4 +12.4 60 +23 +23 комфорт 1013.6 932.2
17 15.08 Ю 1 н/о н/о +18.7 +12.0 65 +20 +20 1014.3 932.4
18 15.08 СЗ 1 н/о н/о +16.7 +13.0 79 +18 +18 1015.2 932.7 +13.0 +21.5
19 15.08 СЗ 2 н/о н/о +15.7 +12.2 80 +16 +16 1016.0 933.2
20 15.08 СЗ 2 н/о н/о +14.8 +11.7 82 +14 +14 1016.8 933.6
21 15.08 СЗ 2 н/о н/о +14.0 +11.5 85 +13 +13 1017.2 933.8
22 15.08 СЗ 2 н/о н/о +14.1 +11.6 85 +14 +14 1017.5 934.1
23 15.08 СЗ 2 н/о н/о +14.8 +12.3 85 +14 +14 1017.3 934.1
00 16.08 СЗ 1 н/о н/о +14.6 +12.1 85 +15 +15 1017.2 934.0
01 16.08 СЗ 2 н/о н/о +16.6 +11.3 71 +17 +17 1016.7 934.0
02 16.08 С 1 н/о н/о +16.8 +10.0 64 +18 +18 1016.3 933.7
03 16.08 СЗ 3 н/о н/о +17.1 +10.0 63 +17 +17 1016.2 933.7
04 16.08 СЗ 2 н/о н/о +16.8 +10.0 64 +17 +17 1016.8 934.1 0.0
05 16.08 СЗ 2 н/о н/о +16.8 +10.0 64 +17 +17 1016.9 934.2
06 16.08 Ю 2 н/о н/о +16.3 +10.2 67 +16 +16 1017.5 934.6 +13.8 +17.3 0.0
07 16.08 ЮЗ 3 н/о н/о +16.1 +10.4 69 +16 +16 1018.0 935.1 0.0
08 16.08 штиль 0 н/о ливневой дождь н/о +15.5 +12.4 82 +15 +15 1018.5 935.4 0.1
09 16.08 ЮВ 1 н/о {ливн. осадки} н/о +17.3 +13.8 80 +18 +18 1018.1 935.6 0.1
10 16.08 В 1 н/о н/о +18.3 +11.6 65 +20 +20 1017.9 935.6
11 16.08 З 2 н/о н/о +17.6 +11.2 66 +18 +18 1018.2 935.7
12 16.08 ЮВ 1 н/о {ливн. осадки} н/о +19.3 +11.3 60 +21 +21 комфорт 1017.3 935.3 0.1
13 16.08 СЗ 2 н/о н/о +20.9 +10.1 50 +23 +23 комфорт 1016.2 934.7
14 16.08 ЮЗ 1 н/о н/о +20.5 +10.3 52 +23 +23 комфорт 1016.2 934.6
15 16.08 ЮЗ 2 н/о н/о +22.0 +10.5 48 +24 +24 комфорт 1015.6 934.4
16 16.08 С 1 н/о н/о +20.1 +9.7 51 +23 +23 комфорт 1016.4 934.6
17 16.08 З 2 н/о н/о +18.3 +9.6 57 +19 +19 1016.9 934.6
18 16.08 СЗ 1 н/о н/о +16.8 +10.0 64 +18 +18 1017.4 934.7 +15.4 +22.0 0.1
19 16.08 СЗ 2 н/о н/о +15.0 +9.6 70 +15 +15 1018.8 935.5
20 16.08 СЗ 3 н/о н/о +13.6 +9.3 75 +12 +12 1019.6 935.8
21 16.08 СЗ 3 н/о н/о +13.3 +10.3 82 +12 +12 1019.9 936.0
22 16.08 З 1 н/о н/о +13.3 +10.6 84 +13 +13 1019.6 935.8
23 16.08 СЗ 3 н/о н/о +12.8 +10.2 84 +11 +11 1019.6 935.6
00 17.08 СЗ 2 н/о н/о +12.6 +10.1 85 +12 +12 1019.2 935.2
01 17.08 СЗ 2 н/о н/о +12.7 +10.4 86 +12 +12 1019.1 935.1
02 17.08 СЗ 2 н/о н/о +12.1 +10.7 91 +11 +11 1018.9 934.8
03 17.08 СЗ 2 н/о н/о +11.9 +10.1 89 +11 +11 1018.5 934.3
04 17.08 СЗ 3 н/о н/о +11.9 +10.1 89 +10 +10 1018.6 934.4
05 17.08 СЗ 2 н/о н/о +12.4 +10.5 88 +11 +11 1018.4 934.4
06 17.08 ЮВ 1 н/о н/о +15.2 +12.8 86 +16 +16 1017.7 934.6 +11.7 +17.3
07 17.08 ЮВ 1 н/о н/о +17.5 +13.6 78 +19 +19 1017.0 934.6
08 17.08 ЮВ 1 н/о н/о +17.6 +13.5 77 +19 +19 1017.0 934.6
09 17.08 ЮВ 1 н/о н/о +20.4 +15.7 74 +24 +24 комфорт 1016.0 934.5
10 17.08 ЮЗ 1 н/о н/о +20.6 +13.8 65 +24 +24 комфорт 1016.1 934.6
11 17.08 Ю 1 н/о н/о +22.4 +13.2 56 +25 +25 комфорт 1015.1 934.1
12 17.08 ЮВ 1 н/о н/о +22.5 +14.3 60 +26 +26 жарко 1014.4 933.6
13 17.08 Ю 2 н/о н/о +24.3 +14.4 54 +27 +27 жарко 1013.8 933.5
14 17.08 Ю 2 н/о н/о +25.2 +15.0 53 +28 +28 жарко 1013.2 933.2
15 17.08 ЮЗ 2 н/о н/о +24.7 +14.1 52 +27 +27 жарко 1013.2 933.0
16 17.08 ЮЗ 2 н/о н/о +24.1 +13.9 53 +26 +26 жарко 1013.4 933.0
17 17.08 Ю 1 н/о н/о +22.8 +14.1 58 +26 +26 жарко 1013.9 933.2
18 17.08 СЗ 1 н/о н/о +20.2 +15.5 74 +24 +24 комфорт 1014.6 933.2 +14.8 +25.4
19 17.08 СЗ 3 н/о н/о +18.1 +14.5 79 +18 +18 1015.6 933.5
20 17.08 СЗ 2 н/о н/о +17.8 +14.1 79 +18 +18 1015.5 933.3
21 17.08 СЗ 2 н/о н/о +17.0 +13.5 80 +17 +17 1015.7 933.3
22 17.08 СЗ 2 н/о н/о +17.5 +14.2 81 +18 +18 1015.4 933.2
23 17.08 СЗ 2 н/о н/о +16.8 +14.0 84 +17 +17 1015.4 933.0
00 18.08 С 1 н/о н/о +17.2 +14.4 84 +18 +18 1015.5 933.2
01 18.08 СЗ 1 н/о н/о +16.9 +14.7 87 +18 +18 1015.1 932.7
02 18.08 СЗ 2 н/о н/о +17.4 +14.4 83 +18 +18 1014.7 932.5
03 18.08 СЗ 2 н/о н/о +16.9 +13.6 81 +17 +17 1014.6 932.2
04 18.08 СЗ 2 н/о н/о +16.1 +13.2 83 +16 +16 1014.9 932.3
05 18.08 С 1 н/о н/о +16.9 +14.0 83 +18 +18 1014.7 932.3
06 18.08 С 1 н/о н/о +18.3 +15.8 85 +20 +20 1014.2 932.3 +15.9 +20.7
07 18.08 штиль 0 н/о н/о +19.8 +17.4 86 +22 +22 комфорт 1014.0 932.6
08 18.08 ЮВ 1 н/о н/о +21.9 +18.1 79 +27 +27 душно 1013.5 932.7
09 18.08 ЮВ 1 н/о н/о +24.1 +18.5 71 +29 +29 душно 1012.9 932.7
10 18.08 Ю 1 н/о н/о +25.3 +18.5 66 +30 +30 душно 1012.7 932.9
11 18.08 ЮВ 2 н/о н/о +26.8 +18.1 59 +31 +31 душно 1012.1 932.7
12 18.08 ЮЗ 1 н/о н/о +27.8 +16.5 50 +31 +31 душно 1011.9 932.7
13 18.08 ЮВ 2 н/о н/о +29.0 +16.6 47 +32 +32 душно 1011.5 932.6
14 18.08 Ю 1 н/о н/о +29.3 +16.2 45 +32 +32 душно 1011.4 932.6
15 18.08 ЮВ 2 н/о н/о +28.8 +16.4 47 +32 +32 душно 1011.5 932.6
16 18.08 ЮВ 2 н/о н/о +28.2 +18.0 54 +33 +33 очень
душно
1011.5 932.5
17 18.08 ЮВ 2 н/о н/о +25.5 +16.7 58 +29 +29 душно 1012.4 932.6
18 18.08 СЗ 1 н/о н/о +21.9 +17.3 75 +26 +26 душно 1013.2 932.4 +18.0 +29.4
19 18.08 СЗ 3 н/о н/о +20.2 +16.9 81 +23 +23 комфорт 1013.7 932.4
20 18.08 СЗ 3 н/о н/о +19.0 +16.8 87 +21 +21 комфорт 1014.0 932.4
21 18.08 СЗ 3 н/о н/о +19.0 +15.5 80 +21 +21 комфорт 1014.1 932.4
22 18.08 СЗ 3 н/о н/о +18.7 +16.3 86 +20 +20 1014.0 932.3
23 18.08 СЗ 3 н/о н/о +18.2 +16.4 89 +19 +19 1014.1 932.2
00 19.08 СЗ 1 н/о н/о +17.9 +16.3 90 +19 +19 1014.1 932.1
01 19.08 С 1 н/о н/о +17.5 +16.2 92 +19 +19 1013.9 931.8
02 19.08 штиль 0 н/о н/о +17.6 +15.6 88 +18 +18 1013.8 931.8
03 19.08 СЗ 1 н/о н/о +17.3 +14.3 83 +18 +18 1014.0 931.8
04 19.08 СЗ 2 н/о н/о +16.6 +13.1 80 +17 +17 1014.7 932.2
05 19.08 С 1 н/о н/о +20.2 +13.8 67 +24 +24 комфорт 1013.7 932.3
06 19.08 СЗ 4
{14}
н/о н/о +22.7 +14.5 60 +26 +26 жарко 1013.4 932.7 +16.2 +22.7
07 19.08 СЗ 4 н/о н/о +23.7 +15.0 58 +27 +27 жарко 1013.9 933.4
08 19.08 СЗ 3 н/о н/о +25.2 +16.1 57 +29 +29 душно 1014.2 934.1
09 19.08 штиль 0 н/о н/о +26.4 +16.1 53 +30 +30 душно 1014.4 934.6
10 19.08 В 1 н/о н/о +26.8 +16.5 53 +30 +30 душно 1014.9 935.2
11 19.08 ЮВ 2 н/о н/о +24.5 +16.8 62 +28 +28 душно 1015.7 935.4
12 19.08 ЮВ 1 н/о н/о +24.1 +17.6 67 +28 +28 душно 1015.9 935.5
13 19.08 В 1 н/о н/о +24.7 +17.9 66 +29 +29 душно 1016.0 935.7
14 19.08 В 1 н/о н/о +24.9 +18.1 66 +29 +29 душно 1015.8 935.6
15 19.08 В 2 н/о н/о +25.3 +18.0 64 +30 +30 душно 1015.6 935.5
16 19.08 ЮВ 2 н/о н/о +25.0 +17.5 63 +29 +29 душно 1015.4 935.2
17 19.08 ЮВ 1 н/о н/о +23.7 +16.5 64 +27 +27 жарко 1015.8 935.2
18 19.08 СЗ 1 н/о н/о +21.9 +17.3 75 +26 +26 душно 1016.9 935.8 +21.9 +28.0
19 19.08 С 3 н/о осадки н/о +21.0 +17.8 82 +26 +26 душно 1017.8 936.4 0.1
20 19.08 З 2 н/о н/о +18.7 +18.2 97 +20 +20 1019.8 937.7 6
21 19.08 СЗ 3 н/о осадки н/о +18.0 +17.0 94 +18 +18 1019.3 937.0 9
22 19.08 СЗ 3 н/о н/о +17.6 +17.0 96 +18 +18 1019.5 937.0
23 19.08 СЗ 2 н/о н/о +17.2 +16.6 96 +18 +18 1019.6 937.0
00 20.08 СЗ 3 н/о {осадки} н/о +17.8 +17.2 96 +18 +18 1019.2 936.8 9
01 20.08 СЗ 3 н/о н/о +18.0 +17.4 96 +18 +18 1019.2 936.9
02 20.08 СЗ 2 н/о н/о +17.6 +16.8 95 +18 +18 1019.5 937.0
03 20.08 СЗ 3 н/о н/о +16.8 +15.9 94 +17 +17 1019.7 937.0
04 20.08 СЗ 3 н/о н/о +16.3 +15.4 94 +16 +16 1020.2 937.3
05 20.08 СЗ 3 н/о н/о +16.9 +16.0 94 +17 +17 1020.2 937.5
06 20.08 СЗ 2 н/о н/о +18.6 +17.5 93 +20 +20 1019.9 937.7 +16.3 +22.2 9
07 20.08 штиль 0 н/о н/о +21.0 +16.6 76 +24 +24 комфорт 1019.4 937.8
08 20.08 В 1 н/о н/о +22.0 +15.9 68 +26 +26 душно 1019.3 938.0
09 20.08 ЮВ 1 н/о н/о +23.5 +17.3 68 +27 +27 душно 1018.9 938.1
10 20.08 ЮВ 1 н/о н/о +24.1 +17.4 66 +28 +28 душно 1018.8 938.1
11 20.08 В 1 н/о н/о +25.5 +18.2 64 +30 +30 душно 1018.2 938.0
12 20.08 ЮВ 1 н/о н/о +25.1 +17.8 64 +29 +29 душно 1018.0 937.7
13 20.08 ЮВ 2 н/о н/о +26.7 +18.3 60 +31 +31 душно 1017.2 937.4
14 20.08 Ю 1 н/о н/о +25.7 +17.4 60 +30 +30 душно 1017.5 937.3
15 20.08 ЮВ 2 н/о н/о +25.4 +17.6 62 +30 +30 душно 1017.2 937.0
16 20.08 ЮВ 1 н/о н/о +25.3 +18.0 64 +30 +30 душно 1017.1 936.9
17 20.08 штиль 0 н/о н/о +23.8 +18.5 72 +28 +28 душно 1017.3 936.7
18 20.08 СЗ 2 н/о н/о +21.6 +18.4 82 +26 +26 душно 1018.0 936.8 +18.4 +27.1
19 20.08 СЗ 3 н/о н/о +20.7 +18.3 86 +25 +25 комфорт 1018.6 937.1
20 20.08 СЗ 3 н/о н/о +20.3 +18.3 88 +24 +24 комфорт 1018.6 937.0
21 20.08 СЗ 2 н/о н/о +20.0 +18.2 89 +24 +24 комфорт 1018.7 937.0
22 20.08 СЗ 2 н/о н/о +19.5 +17.8 90 +22 +22 комфорт 1018.5 936.7
23 20.08 СЗ 2 н/о н/о +19.1 +17.3 89 +21 +21 комфорт 1018.6 936.6
00 21.08 СЗ 2 н/о н/о +19.7 +17.5 87 +23 +23 комфорт 1018.4 936.6
01 21.08 СЗ 2 н/о н/о +19.3 +17.3 88 +22 +22 комфорт 1018.6 936.7
02 21.08 СЗ 2 н/о н/о +20.9 +17.5 81 +25 +25 комфорт 1018.5 937.0
03 21.08 СЗ 9
{15}
н/о н/о +19.7 +15.4 76 +21 +21 комфорт 1019.2 937.3
04 21.08 СЗ 9
{17}
н/о н/о +18.5 +12.7 69 +18 +18 1020.2 937.8
05 21.08 СЗ 9
{18}
н/о н/о +18.0 +11.8 67 +17 +17 1021.3 938.6
06 21.08 СЗ 8
{18}
н/о н/о +17.8 +11.1 65 +17 +17 1022.3 939.5 +17.8 +21.8
07 21.08 СЗ 5
{16}
н/о н/о +17.9 +11.2 65 +18 +18 1022.8 940.0
08 21.08 ЮЗ 1 н/о н/о +18.4 +11.5 64 +20 +20 1023.7 940.9
09 21.08 штиль 0
{16}
н/о н/о +19.2 +12.7 66 +20 +20 1023.8 941.3
10 21.08 С 1 н/о н/о +19.1 +12.1 64 +21 +21 комфорт 1024.4 941.8
11 21.08 С 1 н/о н/о +19.2 +12.9 67 +22 +22 комфорт 1024.5 941.9
12 21.08 СВ 1
{16}
н/о н/о +18.6 +12.6 68 +20 +20 1024.8 942.0
13 21.08 С 1 н/о н/о +18.3 +12.9 71 +20 +20 1024.8 942.0
14 21.08 С 1 н/о н/о +18.3 +12.5 69 +20 +20 1025.0 942.1
15 21.08 С 2 н/о н/о +18.4 +12.6 69 +19 +19 1024.8 942.0
16 21.08 С 1 н/о н/о +17.9 +12.8 72 +19 +19 1025.3 942.3
17 21.08 штиль 0 н/о н/о +17.7 +12.8 73 +18 +18 1024.9 941.9
18 21.08 СЗ 1
{16}
н/о н/о +16.8 +12.9 78 +18 +18 1025.3 942.0 +16.8 +19.5
19 21.08 З 1 н/о н/о +15.2 +12.5 84 +16 +16 1026.3 942.5
20 21.08 З 1 н/о н/о +14.6 +12.4 87 +15 +15 1026.5 942.5
21 21.08 С 1 н/о н/о +13.9 +12.1 89 +14 +14 1026.9 942.7
22 21.08 С 1 н/о н/о +13.1 +11.5 90 +13 +13 1027.2 942.7
23 21.08 З 2 н/о н/о +13.9 +11.8 87 +13 +13 1026.7 942.5
00 22.08 С 1 н/о н/о +13.3 +11.2 87 +13 +13 1026.5 942.1
01 22.08 СЗ 2 н/о н/о +12.9 +10.6 86 +12 +12 1026.4 941.9
02 22.08 СЗ 1 н/о н/о +12.8 +10.5 86 +13 +13 1026.5 941.9

 

Местоположение метеостанции Санкт Радегунд бай Грац (Австрия): широта 47.17 долгота 15.48 высота над уровнем моря 725 м.

В архиве по умолчанию представлена погода в Санкт Радегунд бай Грац за последнюю неделю. Архивные данные за месяц целиком и за предыдущие месяцы, начиная с января 2011 года, Вы можете получить, выбрав интересующий диапазон дат из раскрывающегося списка и нажав кнопку "Ввод!".


*Определитесь, кто Вы:
робот инопланетянин человек

Внимание! Время в таблицах - всемирное. Для получения местного времени необходимо прибавить поправку, которая равна 1 ч.

Смотрите также архив погоды в соседних городах и на ближайших метеорологических станциях:

Погода на Шёкле (Австрия) (3 км)
Погода в Граце университет (Австрия) (6 км)
Погода в Ласницхёэ (Австрия) (13 км)
Погода в Граце (Австрия) (19 км)
Погода в Брукк-ан-дер-Муре (Австрия) (32 км)
Погода в Кёфлаге (Австрия) (32 км)
Погода в Фишбахе (Австрия) (32 км)
Погода в Капфенберге (Австрия) (34 км)
Погода в Капфенберг аэропорту (Австрия) (35 км)
Погода в Леобене (Австрия) (38 км)

Пояснения к столбцам:

Ветер - указаны скорость ветра в м/с - средняя за 10 мин, порывы в срок и между сроками (в фигурных скобках) и направление, откуда дует ветер: С - северный, СВ - северо-восточный, В - восточный, ЮВ - юго-восточный, Ю - южный, ЮЗ - юго-западный, З - западный, СЗ - северо-западный.
Видимость - горизонтальная дальность видимости в метрах или километрах. При видимости от 1 до 10 км при отсутствии осадков обычно наблюдается дымка, при ухудшении видимости до 1 км и менее - туман. В сухую погоду видимость может ухудшаться дымом, пылью или мглою.
Явления - указаны атмосферные явления, наблюдавшиеся в срок или в последний час перед сроком; фигурными скобками обозначены явления, наблюдавшиеся между сроками (за 1-3 часа до срока); квадратными скобками обозначены град или гололедные отложения с указанием их диаметра в мм.
Облачность - указаны через наклонную черту общая и нижняя облачность в баллах и высота нижней границы облаков в метрах; квадратными скобками обозначены формы облаков: Ci - перистые, Cs - перисто-слоистые, Cc - перисто-кучевые, Ac - высококучевые, As - высокослоистые, Sc - слоисто-кучевые, Ns - слоисто-дождевые, Cu - кучевые, Cb - кучево-дождевые. Подробнее классификацию облаков см. в Атласе облаков (PDF).
T - Температура воздуха - температура, измеренная на высоте 2 м над землей.
Td - Температура точки росы - температура, при понижении до которой содержащийся в воздухе водяной пар достигнет насыщения.
f - Относительная влажность воздуха - влажноcть воздуха, измеренная на высоте 2 м над землей.
Te - Эффективная температура - температура, которую ощущает одетый по сезону человек в тени. Характеристика душности погоды. При расчете учитывается влияние влажности воздуха и скорости ветра на теплоощущения человека.
Tes - Эффективная температура на солнце - температура, которую ощущает человек, с поправкой на солнечный нагрев. Характеристика знойности погоды. Зависит от высоты солнца над горизонтом, облачности и скорости ветра. Ночью, в пасмурную погоду, а также при ветре 12 м/с и более поправка равна нулю.
P - Атмосферное давление - приведенное к уровню моря атмосферное давление.
Po - Атмосферное давление - измеренное на уровне метеостанции атмосферное давление.
Tmin - Минимальная температура - минимум температуры воздуха на высоте 2 м над землей.
Tmax - Максимальная температура - максимум температуры воздуха на высоте 2 м над землей.
R - Количество осадков - Количество выпавших осадков за период времени, мм. При наведении курсора мыши на число - период времени, за который выпало указанное количество осадков.
R24 - Количество осадков - Количество выпавших осадков за 24 часа, мм.
S - Снежный покров - Высота снежного покрова, см. При наведении курсора мыши на число - состояние снежного покрова и степень покрытия местности в баллах.